カタログに戻る

STARLINK-4513

運用中通信VLEO
NORAD 53548·PAYLOAD·🇺🇸 United States

打ち上げ Aug 19, 2022 から Cape Canaveral Space Force Station

Loading…

次のパス (今後24時間)

TLE

最新Source: CelesTrak SupGP

元期: Sep 14, 2026, 21:35 UTC

1 53548C 22101X   26257.89979167  .00020398  00000+0  12793-2 0  2571
2 53548  53.1593 294.0960 0001178  85.3754 136.0544 15.08821740    12

AllMySatでSTARLINK-4513をリアルタイム追跡

Download on the App Store